Ames, IA

3:59 AM CST on January 24, 2018 (GMT -0600)
Ames Municipal

Weather History for KAMW - August, 2013

Change the Weather History Date:

Wednesday, August 14, 2013

  Actual Average Record
Temperature  
Mean Temperature 63 °F 72 °F  
Max Temperature 76 °F 82 °F 88 °F (2007)
Min Temperature 49 °F 61 °F 46 °F (2004)
Degree Days  
Heating Degree Days 2 0  
Month to date heating degree days 2 0  
Since 1 June heating degree days 53 28  
Since 1 July heating degree days 11 4  
Cooling Degree Days 0 7  
Month to date cooling degree days 67 105  
Year to date cooling degree days 569 591  
Since 1 June cooling degree days 514 542  
Growing Degree Days 12 (Base 50)    
Moisture  
Dew Point 50 °F    
Average Humidity 68    
Maximum Humidity 100    
Minimum Humidity 35    
Precipitation  
Precipitation 0.00 in 0.16 in 2.53 in (1986)
Month to date precipitation 0.79 2.07  
Sea Level Pressure  
Sea Level Pressure 30.18 in    
Wind  
Wind Speed 2 mph (SSE)    
Max Wind Speed 9 mph    
Max Gust Speed 15 mph    
Visibility 10 miles    
Events      
T = Trace of Precipitation, MM = Missing Value Source: NWS Daily Summary

Daily Weather History Graph

Daily Weather History Graph

Search for Another Location

Airport or City:

Trip Planner

Search our weather history database for the weather conditions in past years. The results will help you decide how hot, cold, wet, or windy it might be!

Date:

Astronomy

Aug. 14, 2013 Rise Set
Actual Time 6:21 AM CDT 8:15 PM CDT
Civil Twilight 5:51 AM CDT 8:45 PM CDT
Nautical Twilight 5:14 AM CDT 9:22 PM CDT
Astronomical Twilight 4:34 AM CDT 10:02 PM CDT
Moon 2:29 PM CDT (8/14) No Moon Set
Length of Visible Light 14h 54m
Length of Day
13h 54m
First Quarter, 53% of the Moon is Illuminated
Aug 14
First Quarter
Aug 20
Full
Aug 28
Last Quarter
Sep 5
New
Sep 12
First Quarter

Hourly Weather History & Observations

Time (CDT) Temp. Dew Point Humidity Pressure Visibility Wind Dir Wind Speed Gust Speed Precip Events Conditions
12:53 AM 53.1 °F 51.1 °F 93% 30.19 in 10.0 mi Calm Calm - N/A   Partly Cloudy
1:53 AM 54.0 °F 52.0 °F 93% 30.19 in 10.0 mi Calm Calm - N/A   Mostly Cloudy
2:53 AM 54.0 °F 52.0 °F 93% 30.19 in 10.0 mi Calm Calm - N/A   Mostly Cloudy
3:53 AM 53.1 °F 51.1 °F 93% 30.20 in 10.0 mi Calm Calm - N/A   Scattered Clouds
4:53 AM 51.1 °F 50.0 °F 96% 30.20 in 9.0 mi Calm Calm - N/A   Clear
5:53 AM 50.0 °F 48.9 °F 96% 30.20 in 9.0 mi Calm Calm - N/A   Clear
6:53 AM 48.9 °F 48.0 °F 97% 30.21 in 8.0 mi Calm Calm - N/A   Clear
7:53 AM 57.0 °F 52.0 °F 83% 30.22 in 10.0 mi Calm Calm - N/A   Clear
8:53 AM 62.1 °F 53.1 °F 72% 30.23 in 10.0 mi Calm Calm - N/A   Clear
9:53 AM 66.0 °F 53.1 °F 63% 30.22 in 10.0 mi South 3.5 mph - N/A   Clear
10:53 AM 70.0 °F 48.0 °F 46% 30.23 in 10.0 mi Variable 4.6 mph - N/A   Clear
11:53 AM 72.0 °F 44.1 °F 37% 30.22 in 10.0 mi South 4.6 mph - N/A   Clear
12:53 PM 73.0 °F 46.9 °F 39% 30.20 in 10.0 mi South 4.6 mph - N/A   Clear
1:53 PM 73.9 °F 46.0 °F 37% 30.19 in 10.0 mi South 6.9 mph - N/A   Clear
2:53 PM 75.0 °F 46.0 °F 36% 30.17 in 10.0 mi ESE 8.1 mph - N/A   Clear
3:53 PM 73.9 °F 44.1 °F 34% 30.16 in 10.0 mi South 4.6 mph - N/A   Clear
4:53 PM 73.0 °F 46.0 °F 38% 30.15 in 10.0 mi Variable 3.5 mph - N/A   Clear
5:53 PM 72.0 °F 46.9 °F 41% 30.14 in 10.0 mi South 3.5 mph - N/A   Clear
6:53 PM 71.1 °F 50.0 °F 47% 30.13 in 10.0 mi Calm Calm - N/A   Clear
7:53 PM 66.9 °F 55.0 °F 66% 30.12 in 10.0 mi SE 3.5 mph - N/A   Clear
8:53 PM 64.0 °F 55.9 °F 75% 30.13 in 10.0 mi Calm Calm - N/A   Clear
9:53 PM 63.0 °F 55.0 °F 75% 30.14 in 10.0 mi Calm Calm - N/A   Clear
10:53 PM 62.1 °F 55.9 °F 80% 30.14 in 10.0 mi Calm Calm - N/A   Scattered Clouds
11:53 PM 62.1 °F 55.0 °F 78% 30.13 in 10.0 mi SE 3.5 mph - N/A   Overcast